Zurück zum Katalog

STARLINK-3739

AktivKommunikationVLEO
NORAD 52266·PAYLOAD·🇺🇸 United States

Gestartet Apr 21, 2022 von Cape Canaveral Space Force Station

Loading…

Nächste Überflüge (nächste 24 Stunden)

TLE

AktuellSource: CelesTrak SupGP

Epoche: Sep 15, 2026, 01:32 UTC

1 52266C 22041F   26258.06437500  .00042860  00000+0  24811-2 0  2583
2 52266  53.2144 337.8261 0000740 106.5179  27.6382 15.11716137    14

Verfolge STARLINK-3739 in Echtzeit mit AllMySat

Download on the App Store